Home   Weather   Kfar Saba   Past weeks

Flag for Israel Past Weather in Kfar Saba, Israel — Yesterday and Last 2 Weeks

Now
66 °F

Passing clouds.


Feels Like: 66 °F
Forecast: 50 / 64 °F
Wind: 9 mph from Southwest

Location: Dov Airport

Current Time: Jan 18, 2017 at 2:28:04 pm

Latest Report: Jan 18, 2017 at 1:50 pm


Visibility: N/A

Pressure: 30.04 "Hg

Humidity: 73%

Dew Point: 57 °F

Location of Kfar SabaLocation

Past Weather in Kfar Saba — Graph

°F

Kfar Saba Temperature Yesterday

Maximum temperature yesterday: 66 °F (at 1:50 pm)
Minimum temperature yesterday: 54 °F (at 6:50 am)
Average temperature yesterday: 61 °F

High & Low Weather Summary for the Past Weeks

 TemperatureHumidityPressure
High70 °F (Jan 6, 2:50 pm)94% (Jan 4, 6:50 am)30.24 "Hg (Jan 4, 6:50 am)
Low46 °F (Jan 10, 6:50 am)28% (Jan 10, 12:50 pm)29.89 "Hg (Jan 14, 11:50 pm)
Average58 °F61%30.07 "Hg
* Reported Jan 3 12:50 pm — Jan 18 12:50 pm, Kfar Saba, Weather by CustomWeather, © 2017

Note: Actual official high and low records may vary slightly from our data, if they occured in-between our weather recording intervals... More about our weather records

Advertising

Kfar Saba Weather History for the Previous 24 Hours

Scroll right to see more
 ConditionsComfort  
Time TempWeatherWind HumidityBarometerVisibility
12:50 pm
Wed, Jan 18
66 °FScattered clouds.12 mph73%30.07 "HgN/A
11:50 am64 °FScattered clouds.12 mph78%30.07 "Hg5 mi
10:50 am64 °FPassing clouds.6 mph73%30.07 "Hg6 mi
9:50 am61 °FScattered clouds.6 mph77%30.09 "Hg5 mi
8:50 am59 °FSunny.6 mph68%30.07 "Hg10 mi
7:50 am55 °FSunny.6 mph67%30.04 "Hg10 mi
6:50 am54 °FSunny.6 mph72%30.04 "Hg10 mi
5:50 am54 °FClear.6 mph67%30.01 "Hg10 mi
5:30 am54 °FClear.6 mph67%29.98 "Hg10 mi
10:50 pm
Tue, Jan 17
55 °FClear.3 mph82%29.98 "Hg10 mi
9:50 pm59 °FClear.5 mph72%29.98 "Hg10 mi
8:50 pm59 °FClear.5 mph72%29.98 "Hg10 mi
7:50 pm59 °FClear.3 mph77%29.98 "Hg10 mi
6:50 pm61 °FClear.3 mph77%29.98 "Hg10 mi
5:50 pm63 °FClear.3 mph77%29.98 "Hg10 mi
4:50 pm64 °FSunny.5 mph68%29.98 "Hg10 mi
3:50 pm66 °FSunny.5 mph60%29.98 "Hg10 mi
2:50 pm66 °FSunny.6 mph52%29.98 "Hg10 mi
Weather by CustomWeather, © 2017

See weather overviewHow to use our weather pages